This is the latest recevied weather packets stored in our database for station/object WB0RXX. If no packets are shown the sender has not sent any weather packets the latest 10 day(s).
| Time | Temp. | Humidity | Pressure | Rain* | Wind** | Luminosity | Snow |
|---|---|---|---|---|---|---|---|
| 1777601405 | 6.11° C | 85% | 1017.6 hPa | 0 mm | - | - | - |
| 1777600805 | 6.11° C | 85% | 1017.6 hPa | 0 mm | - | - | - |
| 1777600218 | 6.11° C | 84% | 1017.4 hPa | 0 mm | - | - | - |
| 1777599603 | 6.11° C | 84% | 1017.3 hPa | 0 mm | - | - | - |
| 1777599003 | 6.11° C | 83% | 1017.3 hPa | 0 mm | - | - | - |
| 1777598420 | 6.11° C | 83% | 1017.2 hPa | 0 mm | - | - | - |
| 1777597819 | 6.11° C | 82% | 1017.1 hPa | 0 mm | - | - | - |
| 1777597203 | 6.67° C | 82% | 1017.2 hPa | 0 mm | - | - | - |
| 1777596603 | 6.67° C | 81% | 1017.1 hPa | 0 mm | - | - | - |
| 1777596003 | 6.67° C | 80% | 1017.1 hPa | 0 mm | - | - | - |
| 1777595404 | 7.22° C | 80% | 1016.9 hPa | 0.25 mm | - | - | - |
| 1777594806 | 7.78° C | 80% | 1017 hPa | 0.25 mm | - | - | - |
| 1777594203 | 8.33° C | 77% | 1017.1 hPa | 0.25 mm | - | - | - |
| 1777593603 | 8.33° C | 72% | 1017 hPa | 0.25 mm | - | - | - |
| 1777593003 | 8.33° C | 74% | 1017.2 hPa | 0.25 mm | - | - | - |
| 1777592403 | 7.78° C | 74% | 1017.1 hPa | 0.25 mm | - | - | - |
| 1777591804 | 7.78° C | 74% | 1017.3 hPa | 0 mm | - | - | - |
| 1777591203 | 7.78° C | 80% | 1017.2 hPa | 0 mm | - | - | - |
| 1777590603 | 7.22° C | 81% | 1017.3 hPa | 0 mm | - | - | - |
| 1777590020 | 7.78° C | 79% | 1017.5 hPa | 0 mm | - | - | - |
| 1777589420 | 8.33° C | 78% | 1017.5 hPa | 0.25 mm | - | - | - |
| 1777588805 | 8.33° C | 78% | 1017.1 hPa | 0.51 mm | - | - | - |
| 1777588203 | 8.33° C | 69% | 1017 hPa | 0.51 mm | - | - | - |
| 1777587604 | 8.89° C | 69% | 1017.1 hPa | 0.51 mm | - | - | - |
| 1777587003 | 9.44° C | 67% | 1017 hPa | 0.51 mm | - | - | - |
* Rain latest hour (hover to see other rain measurements)
** Current wind speed in m/s (hover to see current wind gust speed)